Terminal Aerodrome Forecast
Issued by NWS Pueblo, CO

Home | Current Version | Previous Version | Text Only | Print | Product List | Glossary On
Versions: 1 2 3 4 5 6 7 8 9 10 11 12 13 14 15 16 17 18 19 20 21 22 23 24 25 26 27 28 29 30 31 32 33 34 35 36 37 38 39 40 41 42 43 44 45 46 47 48 49 50
000
FTUS45 KPUB 062333
TAFCOS
TAF
KCOS 062333Z 0700/0724 04009KT P6SM VCSH SCT040 BKN090
     FM070200 35008KT P6SM SCT060 BKN140
     FM070800 01010KT P6SM BKN050
     FM071600 13010KT P6SM SCT050 BKN100
     FM072000 16014KT P6SM VCTS SCT050CB BKN140=

USA.gov is the U.S. government's official web portal to all federal, state and local government web resources and services.